Time,TemperatureF,DewpointF,PressureIn,WindDirection,WindDirectionDegrees,WindSpeedMPH,WindSpeedGustMPH,Humidity,HourlyPrecipIn,Conditions,Clouds,dailyrainin,SoftwareType,DateUTC
2013-04-12 00:03:00,55.0,55.0,29.71,NW,305,2.0,10.0,100,0.01,,,0.01,,2013-04-12 05:03:00,
2013-04-12 00:12:00,55.0,55.0,29.71,NW,305,2.0,10.0,100,0.01,,,0.01,,2013-04-12 05:12:00,
2013-04-12 00:22:00,54.0,54.0,29.70,WNW,290,4.0,4.0,100,0.01,,,0.01,,2013-04-12 05:22:00,
2013-04-12 00:32:00,54.0,54.0,29.70,WNW,290,4.0,4.0,100,0.01,,,0.01,,2013-04-12 05:32:00,
2013-04-12 00:42:00,54.0,54.0,29.70,WNW,290,4.0,4.0,100,0.01,,,0.01,,2013-04-12 05:42:00,
2013-04-12 00:52:00,53.0,53.0,29.72,NW,308,7.0,9.0,100,0.00,,,0.01,,2013-04-12 05:52:00,
2013-04-12 01:02:00,53.0,53.0,29.73,West,276,3.0,3.0,100,0.00,,,0.01,,2013-04-12 06:02:00,
2013-04-12 01:12:00,53.0,53.0,29.73,West,276,3.0,3.0,100,0.00,,,0.01,,2013-04-12 06:12:00,
2013-04-12 01:22:00,52.0,52.0,29.73,SW,236,5.0,0.0,100,0.00,,,0.56,,2013-04-12 06:22:00,
2013-04-12 01:32:00,52.0,52.0,29.73,WNW,300,5.0,0.0,100,0.00,,,0.56,,2013-04-12 06:32:00,
2013-04-12 01:42:00,52.0,52.0,29.73,WNW,300,5.0,0.0,100,0.00,,,0.56,,2013-04-12 06:42:00,
2013-04-12 01:52:00,52.0,52.0,29.74,WNW,291,8.0,8.0,100,0.00,,,0.56,,2013-04-12 06:52:00,
2013-04-12 02:01:00,52.0,52.0,29.74,NW,318,7.0,7.0,100,0.00,,,0.56,,2013-04-12 07:01:00,
2013-04-12 02:11:00,52.0,52.0,29.74,NW,318,7.0,7.0,100,0.00,,,0.56,,2013-04-12 07:11:00,
2013-04-12 02:22:00,51.0,51.0,29.76,West,264,8.0,8.0,100,0.00,,,0.56,,2013-04-12 07:22:00,
2013-04-12 02:32:00,50.0,50.0,29.77,SW,222,5.0,5.0,100,0.00,,,0.56,,2013-04-12 07:32:00,
2013-04-12 02:42:00,50.0,50.0,29.77,SW,222,5.0,5.0,100,0.00,,,0.56,,2013-04-12 07:42:00,
2013-04-12 02:52:00,49.0,49.0,29.78,WNW,288,4.0,9.0,100,0.00,,,0.56,,2013-04-12 07:52:00,
2013-04-12 03:03:00,49.0,49.0,29.78,North,11,4.0,5.0,100,0.00,,,0.56,,2013-04-12 08:03:00,
2013-04-12 03:12:00,49.0,49.0,29.78,North,11,4.0,5.0,100,0.00,,,0.56,,2013-04-12 08:12:00,
2013-04-12 03:22:00,49.0,49.0,29.79,West,263,3.0,0.0,100,0.00,,,0.56,,2013-04-12 08:22:00,
2013-04-12 03:32:00,48.0,48.0,29.80,WNW,297,4.0,7.0,99,0.00,,,0.56,,2013-04-12 08:32:00,
2013-04-12 03:42:00,48.0,48.0,29.80,WNW,297,4.0,7.0,99,0.00,,,0.56,,2013-04-12 08:42:00,
2013-04-12 03:52:00,48.0,48.0,29.79,WNW,290,3.0,4.0,99,0.00,,,0.56,,2013-04-12 08:52:00,
2013-04-12 04:02:00,47.0,46.0,29.80,WNW,301,1.0,0.0,98,0.00,,,0.56,,2013-04-12 09:02:00,
2013-04-12 04:12:00,47.0,46.0,29.80,WNW,301,1.0,0.0,98,0.00,,,0.56,,2013-04-12 09:12:00,
2013-04-12 04:22:00,46.0,45.0,29.81,West,259,0.0,0.0,98,0.00,,,0.56,,2013-04-12 09:22:00,
2013-04-12 04:32:00,46.0,46.0,29.82,West,260,0.0,0.0,99,0.00,,,0.56,,2013-04-12 09:32:00,
2013-04-12 04:43:00,46.0,46.0,29.82,West,260,0.0,0.0,99,0.00,,,0.56,,2013-04-12 09:43:00,
2013-04-12 04:53:00,46.0,46.0,29.83,NNW,329,2.0,0.0,99,0.00,,,0.56,,2013-04-12 09:53:00,
2013-04-12 05:02:00,45.0,45.0,29.83,NW,304,2.0,3.0,99,0.00,,,0.56,,2013-04-12 10:02:00,
2013-04-12 05:12:00,45.0,45.0,29.83,NW,305,0.0,0.0,99,0.00,,,0.56,,2013-04-12 10:12:00,
2013-04-12 05:23:00,45.0,45.0,29.83,NW,305,0.0,0.0,99,0.00,,,0.56,,2013-04-12 10:23:00,
2013-04-12 05:33:00,44.0,44.0,29.84,West,270,0.0,0.0,99,0.00,,,0.56,,2013-04-12 10:33:00,
2013-04-12 05:42:00,44.0,44.0,29.84,West,270,0.0,0.0,99,0.00,,,0.56,,2013-04-12 10:42:00,
2013-04-12 05:53:00,44.0,44.0,29.84,West,270,0.0,0.0,99,0.00,,,0.56,,2013-04-12 10:53:00,
2013-04-12 06:02:00,44.0,44.0,29.85,West,267,0.0,0.0,99,0.00,,,0.56,,2013-04-12 11:02:00,
2013-04-12 06:12:00,44.0,44.0,29.85,West,267,0.0,0.0,99,0.00,,,0.56,,2013-04-12 11:12:00,
2013-04-12 06:22:00,43.0,43.0,29.85,West,264,0.0,0.0,99,0.00,,,0.56,,2013-04-12 11:22:00,
2013-04-12 06:32:00,43.0,43.0,29.86,West,264,0.0,0.0,99,0.00,,,0.56,,2013-04-12 11:32:00,
2013-04-12 06:42:00,43.0,43.0,29.86,West,264,0.0,0.0,99,0.00,,,0.56,,2013-04-12 11:42:00,
2013-04-12 06:52:00,43.0,43.0,29.87,West,264,0.0,0.0,99,0.00,,,0.56,,2013-04-12 11:52:00,
2013-04-12 07:02:00,43.0,43.0,29.88,West,264,0.0,0.0,100,0.00,,,0.56,,2013-04-12 12:02:00,
2013-04-12 07:12:00,43.0,43.0,29.88,West,264,0.0,0.0,100,0.00,,,0.56,,2013-04-12 12:12:00,
2013-04-12 07:22:00,43.0,43.0,29.89,West,270,0.0,0.0,100,0.00,,,0.56,,2013-04-12 12:22:00,
2013-04-12 07:32:00,44.0,44.0,29.90,West,273,0.0,0.0,100,0.00,,,0.56,,2013-04-12 12:32:00,
2013-04-12 07:42:00,44.0,44.0,29.90,West,273,0.0,0.0,100,0.00,,,0.56,,2013-04-12 12:42:00,
2013-04-12 07:53:00,46.0,46.0,29.90,NW,312,0.0,0.0,99,0.00,,,0.56,,2013-04-12 12:53:00,
2013-04-12 08:03:00,47.0,46.0,29.90,WNW,302,3.0,0.0,98,0.00,,,0.56,,2013-04-12 13:03:00,
2013-04-12 08:12:00,47.0,46.0,29.90,WNW,302,3.0,0.0,98,0.00,,,0.56,,2013-04-12 13:12:00,
2013-04-12 08:22:00,48.0,47.0,29.91,West,267,3.0,3.0,97,0.00,,,0.56,,2013-04-12 13:22:00,
2013-04-12 08:32:00,50.0,49.0,29.91,WNW,298,7.0,7.0,96,0.00,,,0.56,,2013-04-12 13:32:00,
2013-04-12 08:42:00,50.0,49.0,29.91,WNW,298,7.0,7.0,96,0.00,,,0.56,,2013-04-12 13:42:00,
2013-04-12 08:53:00,51.0,50.0,29.91,NW,312,5.0,6.0,95,0.00,,,0.56,,2013-04-12 13:53:00,
2013-04-12 09:03:00,52.0,50.0,29.91,NNE,17,3.0,5.0,92,0.00,,,0.56,,2013-04-12 14:03:00,
2013-04-12 09:12:00,52.0,50.0,29.91,NNE,17,3.0,5.0,92,0.00,,,0.56,,2013-04-12 14:12:00,
2013-04-12 09:22:00,53.0,49.0,29.92,NW,319,6.0,6.0,86,0.00,,,0.56,,2013-04-12 14:22:00,
2013-04-12 09:32:00,54.0,48.0,29.92,NW,325,7.0,7.0,79,0.00,,,0.56,,2013-04-12 14:32:00,
2013-04-12 09:42:00,54.0,48.0,29.92,NW,325,7.0,7.0,79,0.00,,,0.56,,2013-04-12 14:42:00,
2013-04-12 09:53:00,54.0,47.0,29.92,WNW,290,5.0,8.0,76,0.00,,,0.56,,2013-04-12 14:53:00,
2013-04-12 10:02:00,55.0,45.0,29.93,NW,316,4.0,4.0,68,0.00,,,0.56,,2013-04-12 15:02:00,
2013-04-12 10:12:00,55.0,45.0,29.93,NW,316,4.0,4.0,68,0.00,,,0.56,,2013-04-12 15:12:00,
2013-04-12 10:22:00,55.0,44.0,29.93,NW,318,7.0,9.0,67,0.00,,,0.56,,2013-04-12 15:22:00,
2013-04-12 10:33:00,57.0,46.0,29.93,NNW,330,6.0,6.0,66,0.00,,,0.56,,2013-04-12 15:33:00,
2013-04-12 10:43:00,57.0,46.0,29.93,NNW,330,6.0,6.0,66,0.00,,,0.56,,2013-04-12 15:43:00,
2013-04-12 10:53:00,58.0,45.0,29.93,NNE,15,5.0,0.0,62,0.00,,,0.56,,2013-04-12 15:53:00,
2013-04-12 11:03:00,58.0,44.0,29.93,NE,48,4.0,4.0,60,0.00,,,0.56,,2013-04-12 16:03:00,
2013-04-12 11:13:00,58.0,44.0,29.93,NE,48,4.0,4.0,60,0.00,,,0.56,,2013-04-12 16:13:00,
2013-04-12 11:23:00,59.0,44.0,29.93,SW,217,2.0,3.0,58,0.00,,,0.56,,2013-04-12 16:23:00,
2013-04-12 11:33:00,59.0,44.0,29.93,NW,319,6.0,11.0,57,0.00,,,0.56,,2013-04-12 16:33:00,
2013-04-12 11:42:00,59.0,44.0,29.93,NW,319,6.0,11.0,57,0.00,,,0.56,,2013-04-12 16:42:00,
2013-04-12 11:53:00,60.0,45.0,29.93,WNW,283,0.0,3.0,57,0.00,,,0.56,,2013-04-12 16:53:00,
2013-04-12 12:03:00,61.0,45.0,29.93,West,270,1.0,4.0,56,0.00,,,0.56,,2013-04-12 17:03:00,
2013-04-12 12:12:00,61.0,45.0,29.93,West,270,1.0,4.0,56,0.00,,,0.56,,2013-04-12 17:12:00,
2013-04-12 12:23:00,62.0,46.0,29.93,West,270,1.0,4.0,55,0.00,,,0.56,,2013-04-12 17:23:00,
2013-04-12 12:33:00,63.0,46.0,29.92,WNW,297,7.0,7.0,54,0.00,,,0.56,,2013-04-12 17:33:00,
2013-04-12 12:44:00,63.0,46.0,29.92,WNW,297,7.0,7.0,54,0.00,,,0.56,,2013-04-12 17:44:00,
2013-04-12 13:09:00,63.0,45.0,29.92,North,359,7.0,10.0,51,0.00,,,0.56,,2013-04-12 18:09:00,
2013-04-12 13:15:00,63.0,45.0,29.92,North,359,7.0,10.0,51,0.00,,,0.56,,2013-04-12 18:15:00,
2013-04-12 14:26:00,64.0,45.0,29.90,WSW,248,1.0,8.0,50,0.00,,,0.56,,2013-04-12 19:26:00,
2013-04-12 14:27:00,65.0,46.0,29.90,SW,233,0.0,0.0,50,0.00,,,0.56,,2013-04-12 19:27:00,
2013-04-12 14:32:00,66.0,46.0,29.90,WNW,302,0.0,0.0,49,0.00,,,0.56,,2013-04-12 19:32:00,
2013-04-12 14:42:00,66.0,46.0,29.90,WNW,302,0.0,0.0,49,0.00,,,0.56,,2013-04-12 19:42:00,
2013-04-12 14:53:00,66.0,45.0,29.90,SW,222,4.0,10.0,46,0.00,,,0.56,,2013-04-12 19:53:00,
2013-04-12 15:02:00,66.0,45.0,29.90,SSW,208,2.0,6.0,46,0.00,,,0.56,,2013-04-12 20:02:00,
2013-04-12 15:12:00,66.0,45.0,29.90,SSW,208,2.0,6.0,46,0.00,,,0.56,,2013-04-12 20:12:00,
2013-04-12 15:22:00,66.0,44.0,29.89,West,278,6.0,7.0,45,0.00,,,0.56,,2013-04-12 20:22:00,
2013-04-12 15:32:00,66.0,44.0,29.89,SW,222,1.0,0.0,45,0.00,,,0.56,,2013-04-12 20:32:00,
2013-04-12 15:42:00,66.0,44.0,29.89,SW,222,1.0,0.0,45,0.00,,,0.56,,2013-04-12 20:42:00,
2013-04-12 15:52:00,67.0,45.0,29.90,West,263,2.0,0.0,45,0.00,,,0.56,,2013-04-12 20:52:00,
2013-04-12 16:02:00,67.0,45.0,29.90,West,281,6.0,6.0,45,0.00,,,0.56,,2013-04-12 21:02:00,
2013-04-12 16:12:00,67.0,45.0,29.90,West,281,6.0,6.0,45,0.00,,,0.56,,2013-04-12 21:12:00,
2013-04-12 16:22:00,67.0,45.0,29.88,NW,304,4.0,11.0,45,0.00,,,0.56,,2013-04-12 21:22:00,
2013-04-12 16:32:00,67.0,43.0,29.88,SW,228,5.0,6.0,42,0.00,,,0.56,,2013-04-12 21:32:00,
2013-04-12 16:43:00,67.0,43.0,29.88,SW,228,5.0,6.0,42,0.00,,,0.56,,2013-04-12 21:43:00,
2013-04-12 16:53:00,67.0,44.0,29.88,SW,226,8.0,8.0,43,0.00,,,0.56,,2013-04-12 21:53:00,
2013-04-12 17:02:00,67.0,44.0,29.88,North,354,3.0,4.0,44,0.00,,,0.56,,2013-04-12 22:02:00,
2013-04-12 17:12:00,67.0,44.0,29.88,North,354,3.0,4.0,44,0.00,,,0.56,,2013-04-12 22:12:00,
2013-04-12 17:22:00,67.0,44.0,29.88,WNW,283,6.0,8.0,44,0.00,,,0.56,,2013-04-12 22:22:00,
2013-04-12 17:32:00,67.0,44.0,29.88,West,260,3.0,0.0,44,0.00,,,0.56,,2013-04-12 22:32:00,
2013-04-12 17:42:00,67.0,44.0,29.88,West,260,3.0,0.0,44,0.00,,,0.56,,2013-04-12 22:42:00,
2013-04-12 17:52:00,66.0,44.0,29.88,SW,233,7.0,7.0,45,0.00,,,0.56,,2013-04-12 22:52:00,
2013-04-12 18:03:00,65.0,44.0,29.88,WNW,293,3.0,6.0,46,0.00,,,0.56,,2013-04-12 23:03:00,
2013-04-12 18:12:00,66.0,44.0,29.88,WSW,243,2.0,0.0,45,0.00,,,0.56,,2013-04-12 23:12:00,
2013-04-12 18:22:00,66.0,44.0,29.88,WSW,243,2.0,0.0,45,0.00,,,0.56,,2013-04-12 23:22:00,
2013-04-12 18:32:00,65.0,44.0,29.88,NW,305,2.0,6.0,46,0.00,,,0.56,,2013-04-12 23:32:00,
2013-04-12 18:42:00,65.0,44.0,29.88,NW,305,2.0,6.0,46,0.00,,,0.56,,2013-04-12 23:42:00,
2013-04-12 18:52:00,65.0,44.0,29.88,SW,233,3.0,3.0,46,0.00,,,0.56,,2013-04-12 23:52:00,
2013-04-12 19:02:00,64.0,44.0,29.89,WSW,243,0.0,0.0,48,0.00,,,0.56,,2013-04-13 00:02:00,
2013-04-12 19:12:00,64.0,44.0,29.89,WSW,243,0.0,0.0,48,0.00,,,0.56,,2013-04-13 00:12:00,
2013-04-12 19:22:00,63.0,45.0,29.89,SW,224,0.0,0.0,51,0.00,,,0.56,,2013-04-13 00:22:00,
2013-04-12 19:32:00,61.0,44.0,29.89,SW,224,0.0,0.0,54,0.00,,,0.56,,2013-04-13 00:32:00,
2013-04-12 19:42:00,61.0,44.0,29.89,SW,224,0.0,0.0,54,0.00,,,0.56,,2013-04-13 00:42:00,
2013-04-12 19:52:00,60.0,44.0,29.89,SW,224,0.0,0.0,56,0.00,,,0.56,,2013-04-13 00:52:00,
2013-04-12 20:02:00,58.0,44.0,29.90,SW,224,0.0,0.0,60,0.00,,,0.56,,2013-04-13 01:02:00,
2013-04-12 20:12:00,58.0,44.0,29.90,SW,224,0.0,0.0,60,0.00,,,0.56,,2013-04-13 01:12:00,
2013-04-12 20:22:00,56.0,43.0,29.90,SW,224,0.0,0.0,62,0.00,,,0.56,,2013-04-13 01:22:00,
2013-04-12 20:32:00,55.0,43.0,29.91,SW,224,0.0,0.0,64,0.00,,,0.56,,2013-04-13 01:32:00,
2013-04-12 20:42:00,55.0,43.0,29.91,SW,224,0.0,0.0,64,0.00,,,0.56,,2013-04-13 01:42:00,
2013-04-12 20:52:00,54.0,44.0,29.91,SW,224,0.0,0.0,69,0.00,,,0.56,,2013-04-13 01:52:00,
2013-04-12 21:02:00,53.0,43.0,29.92,SW,224,0.0,0.0,70,0.00,,,0.56,,2013-04-13 02:02:00,
2013-04-12 21:12:00,53.0,43.0,29.92,SW,224,0.0,0.0,70,0.00,,,0.56,,2013-04-13 02:12:00,
2013-04-12 21:22:00,52.0,43.0,29.92,SW,224,0.0,0.0,71,0.00,,,0.56,,2013-04-13 02:22:00,
2013-04-12 21:32:00,52.0,44.0,29.93,SW,224,0.0,0.0,73,0.00,,,0.56,,2013-04-13 02:32:00,
2013-04-12 21:42:00,52.0,44.0,29.93,SW,224,0.0,0.0,73,0.00,,,0.56,,2013-04-13 02:42:00,
2013-04-12 21:52:00,51.0,44.0,29.94,SW,224,0.0,0.0,76,0.00,,,0.56,,2013-04-13 02:52:00,
2013-04-12 22:02:00,50.0,43.0,29.95,SW,224,0.0,0.0,77,0.00,,,0.56,,2013-04-13 03:02:00,
2013-04-12 22:12:00,50.0,43.0,29.95,SW,224,0.0,0.0,77,0.00,,,0.56,,2013-04-13 03:12:00,
2013-04-12 22:22:00,50.0,44.0,29.95,SW,224,0.0,0.0,79,0.00,,,0.56,,2013-04-13 03:22:00,
2013-04-12 22:33:00,50.0,44.0,29.95,SW,224,0.0,0.0,80,0.00,,,0.56,,2013-04-13 03:33:00,
2013-04-12 22:42:00,50.0,44.0,29.95,SW,224,0.0,0.0,80,0.00,,,0.56,,2013-04-13 03:42:00,
2013-04-12 22:53:00,50.0,44.0,29.96,SW,224,0.0,0.0,81,0.00,,,0.56,,2013-04-13 03:53:00,
2013-04-12 23:03:00,49.0,44.0,29.96,SW,224,0.0,0.0,82,0.00,,,0.56,,2013-04-13 04:03:00,
2013-04-12 23:12:00,49.0,44.0,29.96,SW,224,0.0,0.0,82,0.00,,,0.56,,2013-04-13 04:12:00,
2013-04-12 23:23:00,49.0,44.0,29.97,SW,224,0.0,0.0,83,0.00,,,0.56,,2013-04-13 04:23:00,
2013-04-12 23:33:00,48.0,43.0,29.97,SW,224,0.0,0.0,84,0.00,,,0.56,,2013-04-13 04:33:00,
2013-04-12 23:42:00,48.0,43.0,29.97,SW,224,0.0,0.0,84,0.00,,,0.56,,2013-04-13 04:42:00,
2013-04-12 23:53:00,48.0,43.0,29.97,SW,224,0.0,0.0,84,0.00,,,0.56,,2013-04-13 04:53:00,